Year,Month,Day,Hour,Minute,Value (Times are PST for temperature in C)
2014,05,01,00,00,15.30
2014,05,01,00,01,15.20
2014,05,01,00,02,15.20
2014,05,01,00,03,15.20
2014,05,01,00,04,15.20
2014,05,01,00,05,15.20
2014,05,01,00,06,15.20
2014,05,01,00,07,15.20
2014,05,01,00,08,15.20
2014,05,01,00,09,15.20
2014,05,01,00,10,15.10
2014,05,01,00,11,15.10
2014,05,01,00,12,15.10
2014,05,01,00,13,15.10
2014,05,01,00,14,15.10
2014,05,01,00,15,15.10
2014,05,01,00,16,15.10
2014,05,01,00,17,15.10
2014,05,01,00,18,15.10
2014,05,01,00,19,15.00
2014,05,01,00,20,15.00
2014,05,01,00,21,15.00
2014,05,01,00,22,14.90
2014,05,01,00,23,14.90
2014,05,01,00,24,14.90
2014,05,01,00,25,14.90
2014,05,01,00,26,14.80
2014,05,01,00,27,14.80
2014,05,01,00,28,14.80
2014,05,01,00,29,14.80
2014,05,01,00,30,14.80
2014,05,01,00,31,14.70
2014,05,01,00,32,14.70
2014,05,01,00,33,14.70
2014,05,01,00,34,14.70
2014,05,01,00,35,14.70
2014,05,01,00,36,14.70
2014,05,01,00,37,14.70
2014,05,01,00,38,14.70
2014,05,01,00,39,14.70
2014,05,01,00,40,14.70
2014,05,01,00,41,14.70
2014,05,01,00,42,14.70
2014,05,01,00,43,14.70
2014,05,01,00,44,14.80
2014,05,01,00,45,14.80
2014,05,01,00,46,14.80
2014,05,01,00,47,14.80
2014,05,01,00,48,14.80
2014,05,01,00,49,14.80
2014,05,01,00,50,14.80
2014,05,01,00,51,14.80
2014,05,01,00,52,14.80
2014,05,01,00,53,14.80
2014,05,01,00,54,14.70
2014,05,01,00,55,14.70
2014,05,01,00,56,14.70
2014,05,01,00,57,14.70
2014,05,01,00,58,14.70
2014,05,01,00,59,14.70
2014,05,01,01,00,14.70
2014,05,01,01,01,14.70
2014,05,01,01,02,14.70
2014,05,01,01,03,14.60
2014,05,01,01,04,14.60
2014,05,01,01,05,14.60
2014,05,01,01,06,14.60
2014,05,01,01,07,14.60
2014,05,01,01,08,14.60
2014,05,01,01,09,14.60
2014,05,01,01,10,14.60
2014,05,01,01,11,14.60
2014,05,01,01,12,14.60
2014,05,01,01,13,14.60
2014,05,01,01,14,14.60
2014,05,01,01,15,14.50
2014,05,01,01,16,14.50
2014,05,01,01,17,14.50
2014,05,01,01,18,14.50
2014,05,01,01,19,14.50
2014,05,01,01,20,14.40
2014,05,01,01,21,14.40
2014,05,01,01,22,14.40
2014,05,01,01,23,14.40
2014,05,01,01,24,14.40
2014,05,01,01,25,14.40
2014,05,01,01,26,14.30
2014,05,01,01,27,14.30
2014,05,01,01,28,14.30
2014,05,01,01,29,14.30
2014,05,01,01,30,14.30
2014,05,01,01,31,14.20
2014,05,01,01,32,14.20
2014,05,01,01,33,14.20
2014,05,01,01,34,14.20
2014,05,01,01,35,14.10
2014,05,01,01,36,14.10
2014,05,01,01,37,14.10
2014,05,01,01,38,14.00
2014,05,01,01,39,14.00
2014,05,01,01,40,14.00
2014,05,01,01,41,14.00
2014,05,01,01,42,14.00
2014,05,01,01,43,14.00
2014,05,01,01,44,14.00
2014,05,01,01,45,14.00
2014,05,01,01,46,14.00
2014,05,01,01,47,14.00
2014,05,01,01,48,14.00
2014,05,01,01,49,14.00
2014,05,01,01,50,13.90
2014,05,01,01,51,13.90
2014,05,01,01,52,13.90
2014,05,01,01,53,13.90
2014,05,01,01,54,13.90
2014,05,01,01,55,13.90
2014,05,01,01,56,13.90
2014,05,01,01,57,13.90
2014,05,01,01,58,13.90
2014,05,01,01,59,13.90
2014,05,01,02,00,13.90
2014,05,01,02,01,13.80
2014,05,01,02,02,13.90
2014,05,01,02,03,13.80
2014,05,01,02,04,13.80
2014,05,01,02,05,13.80
2014,05,01,02,06,13.80
2014,05,01,02,07,13.80
2014,05,01,02,08,13.80
2014,05,01,02,09,13.90
2014,05,01,02,10,14.00
2014,05,01,02,11,14.00
2014,05,01,02,12,14.10
2014,05,01,02,13,14.10
2014,05,01,02,14,14.10
2014,05,01,02,15,14.10
2014,05,01,02,16,14.10
2014,05,01,02,17,14.10
2014,05,01,02,18,14.10
2014,05,01,02,19,14.10
2014,05,01,02,20,14.10
2014,05,01,02,21,14.10
2014,05,01,02,22,14.10
2014,05,01,02,23,14.10
2014,05,01,02,24,14.10
2014,05,01,02,25,14.10
2014,05,01,02,26,14.10
2014,05,01,02,27,14.10
2014,05,01,02,28,14.20
2014,05,01,02,29,14.20
2014,05,01,02,30,14.20
2014,05,01,02,31,14.30
2014,05,01,02,32,14.30
2014,05,01,02,33,14.30
2014,05,01,02,34,14.40
2014,05,01,02,35,14.40
2014,05,01,02,36,14.40
2014,05,01,02,37,14.40
2014,05,01,02,38,14.50
2014,05,01,02,39,14.50
2014,05,01,02,40,14.60
2014,05,01,02,41,14.60
2014,05,01,02,42,14.60
2014,05,01,02,43,14.60
2014,05,01,02,44,14.60
2014,05,01,02,45,14.60
2014,05,01,02,46,14.60
2014,05,01,02,47,14.60
2014,05,01,02,48,14.60
2014,05,01,02,49,14.60
2014,05,01,02,50,14.60
2014,05,01,02,51,14.70
2014,05,01,02,52,14.70
2014,05,01,02,53,14.70
2014,05,01,02,54,14.70
2014,05,01,02,55,14.70
2014,05,01,02,56,14.80
2014,05,01,02,57,14.80
2014,05,01,02,58,14.80
2014,05,01,02,59,14.80
2014,05,01,03,00,14.80
2014,05,01,03,01,14.80
2014,05,01,03,02,14.80
2014,05,01,03,03,14.70
2014,05,01,03,04,14.70
2014,05,01,03,05,14.70
2014,05,01,03,06,14.70
2014,05,01,03,07,14.70
2014,05,01,03,08,14.70
2014,05,01,03,09,14.70
2014,05,01,03,10,14.70
2014,05,01,03,11,14.70
2014,05,01,03,12,14.70
2014,05,01,03,13,14.70
2014,05,01,03,14,14.70
2014,05,01,03,15,14.70
2014,05,01,03,16,14.70
2014,05,01,03,17,14.70
2014,05,01,03,18,14.70
2014,05,01,03,19,14.70
2014,05,01,03,20,14.70
2014,05,01,03,21,14.70
2014,05,01,03,22,14.80
2014,05,01,03,23,14.80
2014,05,01,03,24,14.80
2014,05,01,03,25,14.80
2014,05,01,03,26,14.80
2014,05,01,03,27,14.80
2014,05,01,03,28,14.80
2014,05,01,03,29,14.80
2014,05,01,03,30,14.80
2014,05,01,03,31,14.70
2014,05,01,03,32,14.70
2014,05,01,03,33,14.70
2014,05,01,03,34,14.70
2014,05,01,03,35,14.70
2014,05,01,03,36,14.70
2014,05,01,03,37,14.70
2014,05,01,03,38,14.70
2014,05,01,03,39,14.70
2014,05,01,03,40,14.60
2014,05,01,03,41,14.60
2014,05,01,03,42,14.60
2014,05,01,03,43,14.60
2014,05,01,03,44,14.50
2014,05,01,03,45,14.50
2014,05,01,03,46,14.50
2014,05,01,03,47,14.50
2014,05,01,03,48,14.50
2014,05,01,03,49,14.50
2014,05,01,03,50,14.50
2014,05,01,03,51,14.50
2014,05,01,03,52,14.50
2014,05,01,03,53,14.50
2014,05,01,03,54,14.50
2014,05,01,03,55,14.50
2014,05,01,03,56,14.50
2014,05,01,03,57,14.50
2014,05,01,03,58,14.50
2014,05,01,03,59,14.50
2014,05,01,04,00,14.50
2014,05,01,04,01,14.40
2014,05,01,04,02,14.40
2014,05,01,04,03,14.40
2014,05,01,04,04,14.40
2014,05,01,04,05,14.40
2014,05,01,04,06,14.40
2014,05,01,04,07,14.40
2014,05,01,04,08,14.40
2014,05,01,04,09,14.40
2014,05,01,04,10,14.40
2014,05,01,04,11,14.40
2014,05,01,04,12,14.30
2014,05,01,04,13,14.30
2014,05,01,04,14,14.30
2014,05,01,04,15,14.30
2014,05,01,04,16,14.40
2014,05,01,04,17,14.40
2014,05,01,04,18,14.40
2014,05,01,04,19,14.40
2014,05,01,04,20,14.40
2014,05,01,04,21,14.50
2014,05,01,04,22,14.60
2014,05,01,04,23,14.70
2014,05,01,04,24,14.80
2014,05,01,04,25,14.80
2014,05,01,04,26,14.80
2014,05,01,04,27,14.80
2014,05,01,04,28,14.80
2014,05,01,04,29,14.80
2014,05,01,04,30,14.80
2014,05,01,04,31,14.80
2014,05,01,04,32,14.80
2014,05,01,04,33,14.80
2014,05,01,04,34,14.80
2014,05,01,04,35,14.80
2014,05,01,04,36,14.90
2014,05,01,04,37,14.90
2014,05,01,04,38,14.90
2014,05,01,04,39,14.90
2014,05,01,04,40,14.90
2014,05,01,04,41,14.90
2014,05,01,04,42,14.90
2014,05,01,04,43,14.90
2014,05,01,04,44,14.90
2014,05,01,04,45,14.90
2014,05,01,04,46,14.90
2014,05,01,04,47,14.90
2014,05,01,04,48,14.90
2014,05,01,04,49,14.90
2014,05,01,04,50,14.90
2014,05,01,04,51,14.90
2014,05,01,04,52,14.90
2014,05,01,04,53,14.90
2014,05,01,04,54,14.90
2014,05,01,04,55,14.90
2014,05,01,04,56,14.90
2014,05,01,04,57,14.80
2014,05,01,04,58,14.80
2014,05,01,04,59,14.80
2014,05,01,05,00,14.80
2014,05,01,05,01,14.80
2014,05,01,05,02,14.80
2014,05,01,05,03,14.70
2014,05,01,05,04,14.70
2014,05,01,05,05,14.70
2014,05,01,05,06,14.70
2014,05,01,05,07,14.70
2014,05,01,05,08,14.70
2014,05,01,05,09,14.70
2014,05,01,05,10,14.70
2014,05,01,05,11,14.70
2014,05,01,05,12,14.70
2014,05,01,05,13,14.70
2014,05,01,05,14,14.70
2014,05,01,05,15,14.70
2014,05,01,05,16,14.70
2014,05,01,05,17,14.70
2014,05,01,05,18,14.70
2014,05,01,05,19,14.70
2014,05,01,05,20,14.70
2014,05,01,05,21,14.70
2014,05,01,05,22,14.70
2014,05,01,05,23,14.70
2014,05,01,05,24,14.70
2014,05,01,05,25,14.70
2014,05,01,05,26,14.70
2014,05,01,05,27,14.70
2014,05,01,05,28,14.70
2014,05,01,05,29,14.70
2014,05,01,05,30,14.60
2014,05,01,05,31,14.60
2014,05,01,05,32,14.60
2014,05,01,05,33,14.60
2014,05,01,05,34,14.50
2014,05,01,05,35,14.50
2014,05,01,05,36,14.40
2014,05,01,05,37,14.30
2014,05,01,05,38,14.30
2014,05,01,05,39,14.20
2014,05,01,05,40,14.10
2014,05,01,05,41,14.00
2014,05,01,05,42,14.00
2014,05,01,05,43,13.90
2014,05,01,05,44,13.90
2014,05,01,05,45,13.80
2014,05,01,05,46,13.80
2014,05,01,05,47,13.70
2014,05,01,05,48,13.60
2014,05,01,05,49,13.60
2014,05,01,05,50,13.60
2014,05,01,05,51,13.50
2014,05,01,05,52,13.50
2014,05,01,05,53,13.50
2014,05,01,05,54,13.50
2014,05,01,05,55,13.40
2014,05,01,05,56,13.40
2014,05,01,05,57,13.40
2014,05,01,05,58,13.40
2014,05,01,05,59,13.40
2014,05,01,06,00,13.30
2014,05,01,06,01,13.30
2014,05,01,06,02,13.30
2014,05,01,06,03,13.30
2014,05,01,06,04,13.30
2014,05,01,06,05,13.30
2014,05,01,06,06,13.30
2014,05,01,06,07,13.30
2014,05,01,06,08,13.30
2014,05,01,06,09,13.30
2014,05,01,06,10,13.30
2014,05,01,06,11,13.20
2014,05,01,06,12,13.20
2014,05,01,06,13,13.30
2014,05,01,06,14,13.30
2014,05,01,06,15,13.30
2014,05,01,06,16,13.30
2014,05,01,06,17,13.30
2014,05,01,06,18,13.30
2014,05,01,06,19,13.40
2014,05,01,06,20,13.40
2014,05,01,06,21,13.40
2014,05,01,06,22,13.40
2014,05,01,06,23,13.40
2014,05,01,06,24,13.40
2014,05,01,06,25,13.40
2014,05,01,06,26,13.40
2014,05,01,06,27,13.40
2014,05,01,06,28,13.40
2014,05,01,06,29,13.40
2014,05,01,06,30,13.40
2014,05,01,06,31,13.40
2014,05,01,06,32,13.50
2014,05,01,06,33,13.50
2014,05,01,06,34,13.50
2014,05,01,06,35,13.50
2014,05,01,06,36,13.50
2014,05,01,06,37,13.60
2014,05,01,06,38,13.60
2014,05,01,06,39,13.60
2014,05,01,06,40,13.60
2014,05,01,06,41,13.60
2014,05,01,06,42,13.60
2014,05,01,06,43,13.70
2014,05,01,06,44,13.70
2014,05,01,06,45,13.80
2014,05,01,06,46,13.80
2014,05,01,06,47,13.80
2014,05,01,06,48,13.90
2014,05,01,06,49,13.90
2014,05,01,06,50,14.00
2014,05,01,06,51,14.10
2014,05,01,06,52,14.10
2014,05,01,06,53,14.20
2014,05,01,06,54,14.20
2014,05,01,06,55,14.20
2014,05,01,06,56,14.20
2014,05,01,06,57,14.30
2014,05,01,06,58,14.30
2014,05,01,06,59,14.40
2014,05,01,07,00,14.40
2014,05,01,07,01,14.50
2014,05,01,07,02,14.50
2014,05,01,07,03,14.50
2014,05,01,07,04,14.60
2014,05,01,07,05,14.60
2014,05,01,07,06,14.60
2014,05,01,07,07,14.60
2014,05,01,07,08,14.70
2014,05,01,07,09,14.70
2014,05,01,07,10,14.70
2014,05,01,07,11,14.70
2014,05,01,07,12,14.80
2014,05,01,07,13,14.80
2014,05,01,07,14,14.80
2014,05,01,07,15,14.80
2014,05,01,07,16,14.80
2014,05,01,07,17,14.80
2014,05,01,07,18,14.90
2014,05,01,07,19,14.80
2014,05,01,07,20,14.80
2014,05,01,07,21,14.90
2014,05,01,07,22,14.90
2014,05,01,07,23,14.90
2014,05,01,07,24,14.90
2014,05,01,07,25,14.90
2014,05,01,07,26,14.90
2014,05,01,07,27,14.90
2014,05,01,07,28,14.90
2014,05,01,07,29,14.90
2014,05,01,07,30,14.90
2014,05,01,07,31,14.90
2014,05,01,07,32,14.90
2014,05,01,07,33,14.90
2014,05,01,07,34,15.00
2014,05,01,07,35,15.00
2014,05,01,07,36,15.00
2014,05,01,07,37,15.00
2014,05,01,07,38,15.00
2014,05,01,07,39,15.10
2014,05,01,07,40,15.00
2014,05,01,07,41,15.00
2014,05,01,07,42,15.10
2014,05,01,07,43,15.10
2014,05,01,07,44,15.10
2014,05,01,07,45,15.10
2014,05,01,07,46,15.10
2014,05,01,07,47,15.10
2014,05,01,07,48,15.20
2014,05,01,07,49,15.20
2014,05,01,07,50,15.20
2014,05,01,07,51,15.20
2014,05,01,07,52,15.20
2014,05,01,07,53,15.30
2014,05,01,07,54,15.30
2014,05,01,07,55,15.30
2014,05,01,07,56,15.40
2014,05,01,07,57,15.40
2014,05,01,07,58,15.50
2014,05,01,07,59,15.50
2014,05,01,08,00,15.60
2014,05,01,08,01,15.60
2014,05,01,08,02,15.60
2014,05,01,08,03,15.70
2014,05,01,08,04,15.70
2014,05,01,08,05,15.70
2014,05,01,08,06,15.70
2014,05,01,08,07,15.80
2014,05,01,08,08,15.80
2014,05,01,08,09,15.80
2014,05,01,08,10,15.90
2014,05,01,08,11,15.90
2014,05,01,08,12,15.90
2014,05,01,08,13,16.00
2014,05,01,08,14,16.00
2014,05,01,08,15,16.10
2014,05,01,08,16,16.10
2014,05,01,08,17,16.20
2014,05,01,08,18,16.20
2014,05,01,08,19,16.20
2014,05,01,08,20,16.30
2014,05,01,08,21,16.30
2014,05,01,08,22,16.40
2014,05,01,08,23,16.40
2014,05,01,08,24,16.40
2014,05,01,08,25,16.50
2014,05,01,08,26,16.50
2014,05,01,08,27,16.50
2014,05,01,08,28,16.60
2014,05,01,08,29,16.60
2014,05,01,08,30,16.60
2014,05,01,08,31,16.70
2014,05,01,08,32,16.70
2014,05,01,08,33,16.70
2014,05,01,08,34,16.70
2014,05,01,08,35,16.70
2014,05,01,08,36,16.80
2014,05,01,08,37,16.80
2014,05,01,08,38,16.90
2014,05,01,08,39,17.00
2014,05,01,08,40,17.00
2014,05,01,08,41,17.10
2014,05,01,08,42,17.20
2014,05,01,08,43,17.20
2014,05,01,08,44,17.30
2014,05,01,08,45,17.30
2014,05,01,08,46,17.30
2014,05,01,08,47,17.30
2014,05,01,08,48,17.30
2014,05,01,08,49,17.40
2014,05,01,08,50,17.40
2014,05,01,08,51,17.40
2014,05,01,08,52,17.50
2014,05,01,08,53,17.50
2014,05,01,08,54,17.50
2014,05,01,08,55,17.50
2014,05,01,08,56,17.50
2014,05,01,08,57,17.50
2014,05,01,08,58,17.60
2014,05,01,08,59,17.60
2014,05,01,09,00,17.70
2014,05,01,09,01,17.70
2014,05,01,09,02,17.70
2014,05,01,09,03,17.60
2014,05,01,09,04,17.60
2014,05,01,09,05,17.60
2014,05,01,09,06,17.50
2014,05,01,09,07,17.50
2014,05,01,09,08,17.50
2014,05,01,09,09,17.50
2014,05,01,09,10,17.50
2014,05,01,09,11,17.50
2014,05,01,09,12,17.50
2014,05,01,09,13,17.60
2014,05,01,09,14,17.60
2014,05,01,09,15,17.60
2014,05,01,09,16,17.60
2014,05,01,09,17,17.60
2014,05,01,09,18,17.60
2014,05,01,09,19,17.70
2014,05,01,09,20,17.70
2014,05,01,09,21,17.70
2014,05,01,09,22,17.70
2014,05,01,09,23,17.80
2014,05,01,09,24,17.80
2014,05,01,09,25,17.90
2014,05,01,09,26,17.90
2014,05,01,09,27,17.90
2014,05,01,09,28,17.90
2014,05,01,09,29,18.00
2014,05,01,09,30,18.00
2014,05,01,09,31,18.10
2014,05,01,09,32,18.10
2014,05,01,09,33,18.10
2014,05,01,09,34,18.10
2014,05,01,09,35,18.20
2014,05,01,09,36,18.20
2014,05,01,09,37,18.20
2014,05,01,09,38,18.20
2014,05,01,09,39,18.30
2014,05,01,09,40,18.40
2014,05,01,09,41,18.40
2014,05,01,09,42,18.50
2014,05,01,09,43,18.60
2014,05,01,09,44,18.60
2014,05,01,09,45,18.70
2014,05,01,09,46,18.70
2014,05,01,09,47,18.70
2014,05,01,09,48,18.70
2014,05,01,09,49,18.80
2014,05,01,09,50,18.80
2014,05,01,09,51,18.80
2014,05,01,09,52,18.90
2014,05,01,09,53,18.90
2014,05,01,09,54,18.90
2014,05,01,09,55,18.90
2014,05,01,09,56,18.90
2014,05,01,09,57,18.90
2014,05,01,09,58,18.90
2014,05,01,09,59,18.90
2014,05,01,10,00,18.90
2014,05,01,10,01,19.00
2014,05,01,10,02,19.00
2014,05,01,10,03,19.00
2014,05,01,10,04,18.90
2014,05,01,10,05,18.90
2014,05,01,10,06,18.80
2014,05,01,10,07,18.80
2014,05,01,10,08,18.80
2014,05,01,10,09,18.80
2014,05,01,10,10,18.80
2014,05,01,10,11,18.90
2014,05,01,10,12,18.90
2014,05,01,10,13,19.00
2014,05,01,10,14,19.00
2014,05,01,10,15,19.00
2014,05,01,10,16,19.00
2014,05,01,10,17,19.00
2014,05,01,10,18,19.10
2014,05,01,10,19,19.10
2014,05,01,10,20,19.10
2014,05,01,10,21,19.20
2014,05,01,10,22,19.20
2014,05,01,10,23,19.20
2014,05,01,10,24,19.20
2014,05,01,10,25,19.20
2014,05,01,10,26,19.20
2014,05,01,10,27,19.20
2014,05,01,10,28,19.20
2014,05,01,10,29,19.30
2014,05,01,10,30,19.30
2014,05,01,10,31,19.30
2014,05,01,10,32,19.40
2014,05,01,10,33,19.50
2014,05,01,10,34,19.50
2014,05,01,10,35,19.60
2014,05,01,10,36,19.60
2014,05,01,10,37,19.70
2014,05,01,10,38,19.70
2014,05,01,10,39,19.70
2014,05,01,10,40,19.70
2014,05,01,10,41,19.70
2014,05,01,10,42,19.70
2014,05,01,10,43,19.70
2014,05,01,10,44,19.80
2014,05,01,10,45,19.80
2014,05,01,10,46,19.80
2014,05,01,10,47,19.80
2014,05,01,10,48,19.80
2014,05,01,10,49,19.80
2014,05,01,10,50,19.90
2014,05,01,10,51,19.90
2014,05,01,10,52,19.90
2014,05,01,10,53,19.90
2014,05,01,10,54,19.90
2014,05,01,10,55,19.80
2014,05,01,10,56,19.90
2014,05,01,10,57,20.00
2014,05,01,10,58,20.10
2014,05,01,10,59,20.10
2014,05,01,11,00,20.20
2014,05,01,11,01,20.30
2014,05,01,11,02,20.40
2014,05,01,11,03,20.50
2014,05,01,11,04,20.50
2014,05,01,11,05,20.50
2014,05,01,11,06,20.40
2014,05,01,11,07,20.40
2014,05,01,11,08,20.30
2014,05,01,11,09,20.30
2014,05,01,11,10,20.30
2014,05,01,11,11,20.30
2014,05,01,11,12,20.40
2014,05,01,11,13,20.40
2014,05,01,11,14,20.40
2014,05,01,11,15,20.40
2014,05,01,11,16,20.40
2014,05,01,11,17,20.40
2014,05,01,11,18,20.40
2014,05,01,11,19,20.40
2014,05,01,11,20,20.50
2014,05,01,11,21,20.60
2014,05,01,11,22,20.60
2014,05,01,11,23,20.70
2014,05,01,11,24,20.60
2014,05,01,11,25,20.60
2014,05,01,11,26,20.50
2014,05,01,11,27,20.40
2014,05,01,11,28,20.40
2014,05,01,11,29,20.40
2014,05,01,11,30,20.40
2014,05,01,11,31,20.50
2014,05,01,11,32,20.50
2014,05,01,11,33,20.50
2014,05,01,11,34,20.60
2014,05,01,11,35,20.60
2014,05,01,11,36,20.70
2014,05,01,11,37,20.70
2014,05,01,11,38,20.70
2014,05,01,11,39,20.70
2014,05,01,11,40,20.70
2014,05,01,11,41,20.70
2014,05,01,11,42,20.70
2014,05,01,11,43,20.70
2014,05,01,11,44,20.70
2014,05,01,11,45,20.80
2014,05,01,11,46,20.80
2014,05,01,11,47,20.90
2014,05,01,11,48,21.00
2014,05,01,11,49,21.00
2014,05,01,11,50,21.10
2014,05,01,11,51,21.00
2014,05,01,11,52,21.00
2014,05,01,11,53,21.00
2014,05,01,11,54,21.00
2014,05,01,11,55,21.00
2014,05,01,11,56,21.10
2014,05,01,11,57,21.10
2014,05,01,11,58,21.00
2014,05,01,11,59,21.00
2014,05,01,12,00,21.00
2014,05,01,12,01,21.00
2014,05,01,12,02,21.00
2014,05,01,12,03,21.00
2014,05,01,12,04,21.00
2014,05,01,12,05,21.00
2014,05,01,12,06,21.00
2014,05,01,12,07,21.10
2014,05,01,12,08,21.00
2014,05,01,12,09,21.00
2014,05,01,12,10,21.00
2014,05,01,12,11,21.00
2014,05,01,12,12,20.90
2014,05,01,12,13,20.90
2014,05,01,12,14,20.90
2014,05,01,12,15,20.90
2014,05,01,12,16,20.90
2014,05,01,12,17,20.90
2014,05,01,12,18,21.00
2014,05,01,12,19,21.00
2014,05,01,12,20,21.10
2014,05,01,12,21,21.10
2014,05,01,12,22,21.20
2014,05,01,12,23,21.30
2014,05,01,12,24,21.30
2014,05,01,12,25,21.40
2014,05,01,12,26,21.50
2014,05,01,12,27,21.60
2014,05,01,12,28,21.70
2014,05,01,12,29,21.70
2014,05,01,12,30,21.70
2014,05,01,12,31,21.80
2014,05,01,12,32,21.80
2014,05,01,12,33,21.90
2014,05,01,12,34,21.90
2014,05,01,12,35,21.90
2014,05,01,12,36,22.00
2014,05,01,12,37,22.00
2014,05,01,12,38,22.10
2014,05,01,12,39,22.10
2014,05,01,12,40,22.10
2014,05,01,12,41,22.10
2014,05,01,12,42,22.10
2014,05,01,12,43,22.10
2014,05,01,12,44,22.10
2014,05,01,12,45,22.00
2014,05,01,12,46,22.00
2014,05,01,12,47,22.10
2014,05,01,12,48,22.10
2014,05,01,12,49,22.20
2014,05,01,12,50,22.20
2014,05,01,12,51,22.20
2014,05,01,12,52,22.30
2014,05,01,12,53,22.30
2014,05,01,12,54,22.40
2014,05,01,12,55,22.40
2014,05,01,12,56,22.50
2014,05,01,12,57,22.50
2014,05,01,12,58,22.50
2014,05,01,12,59,22.50
2014,05,01,13,00,22.50
2014,05,01,13,01,22.50
2014,05,01,13,02,22.50
2014,05,01,13,03,22.50
2014,05,01,13,04,22.50
2014,05,01,13,05,22.50
2014,05,01,13,06,22.50
2014,05,01,13,07,22.50
2014,05,01,13,08,22.60
2014,05,01,13,09,22.70
2014,05,01,13,10,22.70
2014,05,01,13,11,22.70
2014,05,01,13,12,22.80
2014,05,01,13,13,22.80
2014,05,01,13,14,22.90
2014,05,01,13,15,22.90
2014,05,01,13,16,23.00
2014,05,01,13,17,23.10
2014,05,01,13,18,23.10
2014,05,01,13,19,23.10
2014,05,01,13,20,23.20
2014,05,01,13,21,23.20
2014,05,01,13,22,23.30
2014,05,01,13,23,23.30
2014,05,01,13,24,23.30
2014,05,01,13,25,23.30
2014,05,01,13,26,23.30
2014,05,01,13,27,23.30
2014,05,01,13,28,23.20
2014,05,01,13,29,23.20
2014,05,01,13,30,23.20
2014,05,01,13,31,23.20
2014,05,01,13,32,23.20
2014,05,01,13,33,23.20
2014,05,01,13,34,23.20
2014,05,01,13,35,23.20
2014,05,01,13,36,23.10
2014,05,01,13,37,23.10
2014,05,01,13,38,23.10
2014,05,01,13,39,23.10
2014,05,01,13,40,23.20
2014,05,01,13,41,23.30
2014,05,01,13,42,23.40
2014,05,01,13,43,23.40
2014,05,01,13,44,23.40
2014,05,01,13,45,23.50
2014,05,01,13,46,23.60
2014,05,01,13,47,23.60
2014,05,01,13,48,23.60
2014,05,01,13,49,23.60
2014,05,01,13,50,23.70
2014,05,01,13,51,23.80
2014,05,01,13,52,23.80
2014,05,01,13,53,23.70
2014,05,01,13,54,23.70
2014,05,01,13,55,23.70
2014,05,01,13,56,23.80
2014,05,01,13,57,23.80
2014,05,01,13,58,23.90
2014,05,01,13,59,23.90
2014,05,01,14,00,23.90
2014,05,01,14,01,23.90
2014,05,01,14,02,23.90
2014,05,01,14,03,23.90
2014,05,01,14,04,23.90
2014,05,01,14,05,24.00
2014,05,01,14,06,24.00
2014,05,01,14,07,24.00
2014,05,01,14,08,24.10
2014,05,01,14,09,24.10
2014,05,01,14,10,24.20
2014,05,01,14,11,24.20
2014,05,01,14,12,24.30
2014,05,01,14,13,24.40
2014,05,01,14,14,24.50
2014,05,01,14,15,24.60
2014,05,01,14,16,24.70
2014,05,01,14,17,24.70
2014,05,01,14,18,24.70
2014,05,01,14,19,24.80
2014,05,01,14,20,24.80
2014,05,01,14,21,24.90
2014,05,01,14,22,25.00
2014,05,01,14,23,25.00
2014,05,01,14,24,25.10
2014,05,01,14,25,25.20
2014,05,01,14,26,25.20
2014,05,01,14,27,25.20
2014,05,01,14,28,25.20
2014,05,01,14,29,25.30
2014,05,01,14,30,25.30
2014,05,01,14,31,25.20
2014,05,01,14,32,25.20
2014,05,01,14,33,25.10
2014,05,01,14,34,25.10
2014,05,01,14,35,25.10
2014,05,01,14,36,25.10
2014,05,01,14,37,25.10
2014,05,01,14,38,25.10
2014,05,01,14,39,25.20
2014,05,01,14,40,25.20
2014,05,01,14,41,25.20
2014,05,01,14,42,25.10
2014,05,01,14,43,25.10
2014,05,01,14,44,25.10
2014,05,01,14,45,25.10
2014,05,01,14,46,25.10
2014,05,01,14,47,25.00
2014,05,01,14,48,25.00
2014,05,01,14,49,25.10
2014,05,01,14,50,25.20
2014,05,01,14,51,25.30
2014,05,01,14,52,25.30
2014,05,01,14,53,25.20
2014,05,01,14,54,25.00
2014,05,01,14,55,24.80
2014,05,01,14,56,24.70
2014,05,01,14,57,24.60
2014,05,01,14,58,24.50
2014,05,01,14,59,24.30
2014,05,01,15,00,24.20
2014,05,01,15,01,24.20
2014,05,01,15,02,24.10
2014,05,01,15,03,24.10
2014,05,01,15,04,24.10
2014,05,01,15,05,24.00
2014,05,01,15,06,23.90
2014,05,01,15,07,23.80
2014,05,01,15,08,23.80
2014,05,01,15,09,23.80
2014,05,01,15,10,23.80
2014,05,01,15,11,23.80
2014,05,01,15,12,23.80
2014,05,01,15,13,23.80
2014,05,01,15,14,23.80
2014,05,01,15,15,23.80
2014,05,01,15,16,23.80
2014,05,01,15,17,23.80
2014,05,01,15,18,23.70
2014,05,01,15,19,23.60
2014,05,01,15,20,23.50
2014,05,01,15,21,23.30
2014,05,01,15,22,23.20
2014,05,01,15,23,23.10
2014,05,01,15,24,23.10
2014,05,01,15,25,23.10
2014,05,01,15,26,23.10
2014,05,01,15,27,23.00
2014,05,01,15,28,22.80
2014,05,01,15,29,22.60
2014,05,01,15,30,22.50
2014,05,01,15,31,22.40
2014,05,01,15,32,22.30
2014,05,01,15,33,22.20
2014,05,01,15,34,22.20
2014,05,01,15,35,22.20
2014,05,01,15,36,22.10
2014,05,01,15,37,21.90
2014,05,01,15,38,21.80
2014,05,01,15,39,21.70
2014,05,01,15,40,21.60
2014,05,01,15,41,21.50
2014,05,01,15,42,21.30
2014,05,01,15,43,21.30
2014,05,01,15,44,21.20
2014,05,01,15,45,21.20
2014,05,01,15,46,21.20
2014,05,01,15,47,21.20
2014,05,01,15,48,21.10
2014,05,01,15,49,21.10
2014,05,01,15,50,21.10
2014,05,01,15,51,21.10
2014,05,01,15,52,21.00
2014,05,01,15,53,21.00
2014,05,01,15,54,21.00
2014,05,01,15,55,21.10
2014,05,01,15,56,21.20
2014,05,01,15,57,21.30
2014,05,01,15,58,21.40
2014,05,01,15,59,21.40
2014,05,01,16,00,21.50
2014,05,01,16,01,21.60
2014,05,01,16,02,21.60
2014,05,01,16,03,21.70
2014,05,01,16,04,21.70
2014,05,01,16,05,21.60
2014,05,01,16,06,21.60
2014,05,01,16,07,21.50
2014,05,01,16,08,21.40
2014,05,01,16,09,21.30
2014,05,01,16,10,21.30
2014,05,01,16,11,21.30
2014,05,01,16,12,21.30
2014,05,01,16,13,21.30
2014,05,01,16,14,21.30
2014,05,01,16,15,21.40
2014,05,01,16,16,21.50
2014,05,01,16,17,21.60
2014,05,01,16,18,21.60
2014,05,01,16,19,21.70
2014,05,01,16,20,21.70
2014,05,01,16,21,21.70
2014,05,01,16,22,21.80
2014,05,01,16,23,21.80
2014,05,01,16,24,21.90
2014,05,01,16,25,22.00
2014,05,01,16,26,22.10
2014,05,01,16,27,22.10
2014,05,01,16,28,22.00
2014,05,01,16,29,22.00
2014,05,01,16,30,22.00
2014,05,01,16,31,22.10
2014,05,01,16,32,22.00
2014,05,01,16,33,21.90
2014,05,01,16,34,21.90
2014,05,01,16,35,21.80
2014,05,01,16,36,21.80
2014,05,01,16,37,21.70
2014,05,01,16,38,21.70
2014,05,01,16,39,21.60
2014,05,01,16,40,21.60
2014,05,01,16,41,21.60
2014,05,01,16,42,21.60
2014,05,01,16,43,21.70
2014,05,01,16,44,21.80
2014,05,01,16,45,21.80
2014,05,01,16,46,21.80
2014,05,01,16,47,21.90
2014,05,01,16,48,21.90
2014,05,01,16,49,22.00
2014,05,01,16,50,21.90
2014,05,01,16,51,21.90
2014,05,01,16,52,21.80
2014,05,01,16,53,21.80
2014,05,01,16,54,21.80
2014,05,01,16,55,21.70
2014,05,01,16,56,21.70
2014,05,01,16,57,21.70
2014,05,01,16,58,21.70
2014,05,01,16,59,21.70
2014,05,01,17,00,21.60
2014,05,01,17,01,21.60
2014,05,01,17,02,21.50
2014,05,01,17,03,21.50
2014,05,01,17,04,21.40
2014,05,01,17,05,21.40
2014,05,01,17,06,21.40
2014,05,01,17,07,21.40
2014,05,01,17,08,21.50
2014,05,01,17,09,21.60
2014,05,01,17,10,21.60
2014,05,01,17,11,21.70
2014,05,01,17,12,21.80
2014,05,01,17,13,21.80
2014,05,01,17,14,22.00
2014,05,01,17,15,22.00
2014,05,01,17,16,22.10
2014,05,01,17,17,22.30
2014,05,01,17,18,22.40
2014,05,01,17,19,22.50